Regional Weather Roundup
Issued by NWS

Home | Current Version | Previous Version | Graphics & Text | Print | Product List | Glossary On
Versions: 1 2 3 4 5 6 7 8 9 10 11 12 13 14 15 16 17 18 19 20 21 22 23 24 25 26 27 28 29 30 31 32 33 34 35 36 37 38 39 40 41 42 43 44 45 46 47 48 49 50
000
ASUS43 KDTX 181210
RWRMI
MICHIGAN HOURLY REGIONAL WEATHER ROUNDUP
NATIONAL WEATHER SERVICE DETROIT/PONTIAC MI
800 AM EDT FRI AUG 18 2017

NOTE: "FAIR" INDICATES FEW OR NO CLOUDS BELOW 12,000 FEET WITH NO
SIGNIFICANT WEATHER AND/OR OBSTRUCTION TO VISIBILITY.

MIZ047>049-052>055-059>063-066>070-074>076-081>083-181300-
SOUTHEAST LOWER MICHIGAN

CITY           SKY/WX    TMP DP  RH WIND       PRES   REMARKS
ADRIAN         SUNNY     67  65  93 W6        29.78S
6HR MIN TEMP:  65; 6HR MAX TEMP:  70;

ALMA           CLOUDY    65  63  93 W9G18     29.71R
ANN ARBOR      MOSUNNY   68  64  87 S6        29.75S
BAD AXE        CLOUDY    67  64  90 SW12G18   29.67S
CARO           CLOUDY    66  63  88 SW10G18   29.69R
DETROIT CITY   SUNNY     70  64  81 SW12G20   29.74R
6HR MIN TEMP:  69; 6HR MAX TEMP:  74;

DETROIT        MOSUNNY   70  65  84 SW12      29.76S
6HR MIN TEMP:  69; 6HR MAX TEMP:  73;

FLINT          CLOUDY    67  64  90 SW9       29.73R
6HR MIN TEMP:  67; 6HR MAX TEMP:  72; 6HR PCP: TRACE;

GROSSE ILE     SUNNY     70  65  85 SW8       29.75S
6HR MIN TEMP:  69; 6HR MAX TEMP:  72; 6HR PCP:  0.01;

HILLSDALE      MOSUNNY   68  63  83 W8        29.78S
HOWELL         CLOUDY    68  63  83 SW8       29.75R
6HR MIN TEMP:  67; 6HR MAX TEMP:  72;


CITY           SKY/WX    TMP DP  RH WIND       PRES   REMARKS
JACKSON          N/A     68  63  84 SW14      29.77R
6HR MIN TEMP:  66; 6HR MAX TEMP:  73; 6HR PCP: TRACE;

LAMBERTVILLE   SUNNY     69  65  88 SW7       29.77S
6HR MIN TEMP:  67; 6HR MAX TEMP:  73;

LANSING        CLOUDY    66  62  87 W14       29.75R
6HR MIN TEMP:  66; 6HR MAX TEMP:  72; 6HR PCP: TRACE;

LAPEER         CLOUDY    68  63  84 W9G17     29.72R
6HR MIN TEMP:  68; 6HR MAX TEMP:  71;

MASON          CLOUDY    70  62  76 W7        29.75S
MONROE         SUNNY     69  65  88 SW8       29.76S
MT. CLEMENS    MOSUNNY   72  64  76 SW9       29.72R
6HR MIN TEMP:  70; 6HR MAX TEMP:  73;

PONTIAC        MOSUNNY   69  63  81 SW10      29.73R
6HR MIN TEMP:  68; 6HR MAX TEMP:  72;

PORT HOPE        N/A     69  65  86 SW10G16   29.63S
6HR MIN TEMP:  68; 6HR MAX TEMP:  71;

PORT HURON     MOSUNNY   72  64  78 SW5       29.72R
TRI CITIES     CLOUDY    67  66  97 SW13      29.70R
6HR MIN TEMP:  66; 6HR MAX TEMP:  70; 6HR PCP:  0.01;

MIDLAND        CLOUDY    67  62  86 W12G17    29.67R
6HR MIN TEMP:  67; 6HR MAX TEMP:  69;

TROY           SUNNY     70  63  77 SW9       29.76R
SAGINAW HB     DRIZZLE   64  63  94 SW10G16   29.69R
$$
MIZ043>046-050>051-056>058-064>065-071>073-077>080-181300-
SOUTHWEST LOWER MICHIGAN

CITY           SKY/WX    TMP DP  RH WIND       PRES   REMARKS
BATTLE CREEK   CLOUDY    67  64  90 W13       29.78R
6HR MIN TEMP:  67; 6HR MAX TEMP:  74; 6HR PCP: TRACE;

BENTON HARBOR  CLOUDY    70  61  73 W17G24    29.80R
6HR MIN TEMP:  69; 6HR MAX TEMP:  73; 6HR PCP:  0.01;

BIG RAPIDS     CLOUDY    63  59  88 W12G20    29.70R FOG
6HR MIN TEMP:  63; 6HR MAX TEMP:  67;

COLDWATER      MOSUNNY   67  67 100 SW8       29.79R
6HR MIN TEMP:  65; 6HR MAX TEMP:  72;

FREMONT        CLOUDY    65  63  94 W9        29.72R
HOLLAND        CLOUDY    68  61  78 NW10G20   29.77R
6HR MIN TEMP:  67; 6HR MAX TEMP:  71; 6HR PCP: TRACE;

GRAND RAPIDS   LGT RAIN  66  64  93 W16G23    29.75R FOG
6HR MIN TEMP:  65; 6HR MAX TEMP:  70; 6HR PCP: TRACE;

IONIA          CLOUDY    65  63  93 SW14      29.73R
6HR MIN TEMP:  65; 6HR MAX TEMP:  70;

KALAMAZOO      CLOUDY    68  63  84 SW3       29.78R
6HR MIN TEMP:  67; 6HR MAX TEMP:  71; 6HR PCP:  0.02;

LUDINGTON      CLOUDY    66  59  80 NW13G21   29.70R
6HR MIN TEMP:  65; 6HR MAX TEMP:  67;

MARSHALL       CLOUDY    66  66  98 W10       29.77R
6HR MIN TEMP:  66; 6HR MAX TEMP:  72;

MOUNT PLEASANT CLOUDY    67  62  84 W9G18     29.69R
6HR MIN TEMP:  66; 6HR MAX TEMP:  72;

MUSKEGON       CLOUDY    68  63  84 W17G25    29.74R
6HR MIN TEMP:  67; 6HR MAX TEMP:  69; 6HR PCP: TRACE;

SOUTH HAVEN    CLOUDY    70  63  77 W12G18    29.78R
$$
MIZ016>042-181300-
NORTHERN LOWER MICHIGAN

CITY           SKY/WX    TMP DP  RH WIND       PRES   REMARKS
ALPENA         PTSUNNY   68  66  93 SW10      29.58R
6HR MIN TEMP:  67; 6HR MAX TEMP:  69;

BEAVER ISLAND  LGT RAIN  64  63  96 W8G16     29.59R
6HR MIN TEMP:  64; 6HR MAX TEMP:  68;

BELLAIRE       DRIZZLE   64  61  91 SW6       29.62R
6HR MIN TEMP:  64; 6HR MAX TEMP:  69;

CADILLAC       DRIZZLE   63  60  90 W8        29.67R
CHARLEVOIX     RAIN      64  64 100 W14       29.62R
FRANKFORT      CLOUDY    67  63  86 NW12      29.66R
GAYLORD        LGT RAIN  62  60  93 W15       29.62R FOG
6HR MIN TEMP:  62; 6HR MAX TEMP:  67; 6HR PCP:  0.11;

GRAYLING       DRIZZLE   63  61  93 W8        29.64R
6HR MIN TEMP:  63; 6HR MAX TEMP:  67;

HARBOR SPRINGS DRIZZLE   65  63  95 W8        29.58R
HOUGHTON LAKE  CLOUDY    64  61  90 W15G22    29.65R
6HR MIN TEMP:  64; 6HR MAX TEMP:  69; 6HR PCP:  0.05;

MANISTEE       CLOUDY    66  61  84 W17G24    29.67R
OSCODA         SUNNY     68  65  91 SW12      29.61R
6HR MIN TEMP:  67; 6HR MAX TEMP:  69;

PELLSTON       CLOUDY    65  64  97 W10       29.57R
6HR MIN TEMP:  65; 6HR MAX TEMP:  69; 6HR PCP:  0.10;

ROGERS CITY    CLOUDY    67  65  93 SW8       29.56R
TRAVERSE CITY  CLOUDY    66  61  84 W9        29.62R
6HR MIN TEMP:  65; 6HR MAX TEMP:  68; 6HR PCP:  0.03;

$$
MIZ007>008-015-181300-
EASTERN UPPER MICHIGAN

CITY           SKY/WX    TMP DP  RH WIND       PRES   REMARKS
KINROSS        CLOUDY    66  66 100 W8        29.52R
6HR MIN TEMP:  66; 6HR MAX TEMP:  67;

MACKINAC ISLAN CLOUDY    65  65 100 W13G20    29.54R
6HR MIN TEMP:  65; 6HR MAX TEMP:  68; 6HR PCP:  0.04;

NEWBERRY       FOG       60  59  97 W9G16     29.56R VSB 3/4
6HR MIN TEMP:  60; 6HR MAX TEMP:  66; 6HR PCP:  0.02;

S. S. MARIE    CLOUDY    67  65  93 W5        29.51R FOG
6HR MIN TEMP:  65; 6HR MAX TEMP:  67; 6HR PCP:  0.60;

MUNISING         N/A     60  50  69 NW23G35   29.63R
6HR MIN TEMP:  60; 6HR MAX TEMP:  64; 6HR PCP:  0.05;

$$
MIZ004>006-011>014-085-181300-
CENTRAL UPPER MICHIGAN

CITY           SKY/WX    TMP DP  RH WIND       PRES   REMARKS
MANISTIQUE     CLOUDY    60  55  81 NW12G17   29.59R HAZE
6HR MIN TEMP:  60; 6HR MAX TEMP:  67;

ESCANABA       CLOUDY    63  59  87 NW10G21   29.63S
6HR MIN TEMP:  62; 6HR MAX TEMP:  65; 6HR PCP: TRACE;

MENOMINEE      SUNNY     65  59  81 NW6       29.67R
6HR MIN TEMP:  64; 6HR MAX TEMP:  65;

SAWYER-GWINN   CLOUDY    59  55  88 NW16G24   29.67R
$$
MIZ001>003-009>011-084-181300-
WESTERN UPPER MICHIGAN

CITY           SKY/WX    TMP DP  RH WIND       PRES   REMARKS
IRON MOUNTAIN  CLOUDY    63  56  78 NW14      29.68R
6HR MIN TEMP:  62; 6HR MAX TEMP:  63;

HOUGHTON       CLOUDY    59  56  89 NW16      29.70R
6HR MIN TEMP:  57; 6HR MAX TEMP:  59; 6HR PCP:  0.05;

COPPER HARBOR    N/A     57  55  93 N16       29.68R
6HR MIN TEMP:  55; 6HR MAX TEMP:  57; 6HR PCP:  0.02;

IRONWOOD       LGT RAIN  59  58  96 NW9       29.79F FOG
6HR MIN TEMP:  59; 6HR MAX TEMP:  61; 6HR PCP:  0.05;

$$

ABBREVIATIONS USED IN REMARKS
   TC - TEMPERATURE IN CELSIUS
  WCI - WIND CHILL INDEX
   HX - HEAT INDEX
  VSB - VISIBILITY





USA.gov is the U.S. government's official web portal to all federal, state and local government web resources and services.